Tracking 29892 objects as of 21-Nov-2024
HD Live streaming from Space Station
objects crossing your sky now

STARLINK-32254

Track STARLINK-32254 now!
10-day predictions
STARLINK-32254 is classified as:


NORAD ID: 60427
Int'l Code: 2024-144C
Perigee: 481.6 km
Apogee: 483.3 km
Inclination: 53.2 °
Period: 94.1 minutes
Semi major axis: 6853 km
RCS: Unknown
Launch date: August 12, 2024
Source: United States (US)
Launch site: AIR FORCE EASTERN TEST RANGE (AFETR)
Your satellite tracking list
Your tracking list is empty




NASA's NSSDC Master Catalog

Two Line Element Set (TLE):
1 60427U 24144C   24325.80561610 -.00002361  00000-0 -67670-4 0  9991
2 60427  53.1626 258.4032 0001257  84.4087 275.7057 15.30172254 16790
Source of the keplerian elements: AFSPC